Havre, MT

7:02 PM MST on December 12, 2017 (GMT -0700)
Havre City-County

Weather History for KHVR - January, 2013

Change the Weather History Date:

Sunday, January 27, 2013

  Actual Average Record
Temperature  
Mean Temperature 28 °F 19 °F  
Max Temperature 36 °F 30 °F 60 °F (2015)
Min Temperature 20 °F 8 °F -57 °F (1916)
Degree Days  
Heating Degree Days 37 46  
Month to date heating degree days 1181 1274  
Since 1 July heating degree days 4551 4740  
Cooling Degree Days 0 0  
Month to date cooling degree days 0 0  
Year to date cooling degree days 0 0  
Moisture  
Dew Point 24 °F    
Average Humidity 81    
Maximum Humidity 92    
Minimum Humidity 69    
Precipitation  
Precipitation 0.00 in 0.01 in 0.14 in (1917)
Month to date precipitation 0.96 0.30  
Year to date precipitation 0.96 0.30  
Snow  
Snow 0.00 in 0.20 in 2.00 in (1953)
Month to date snowfall 15.6 6.4  
Since 1 July snowfall 40.6 21.4  
Snow Depth 2.00 in    
Sea Level Pressure  
Sea Level Pressure 29.83 in    
Wind  
Wind Speed 9 mph (WSW)    
Max Wind Speed 17 mph    
Max Gust Speed 21 mph    
Visibility 10 miles    
Events      
T = Trace of Precipitation, MM = Missing Value Source: NWS Daily Summary

Daily Weather History Graph

Daily Weather History Graph

Search for Another Location

Airport or City:

Trip Planner

Search our weather history database for the weather conditions in past years. The results will help you decide how hot, cold, wet, or windy it might be!

Date:

Astronomy

Jan. 27, 2013 Rise Set
Actual Time 7:54 AM MST 5:10 PM MST
Civil Twilight 7:19 AM MST 5:44 PM MST
Nautical Twilight 6:41 AM MST 6:22 PM MST
Astronomical Twilight 6:05 AM MST 6:59 PM MST
Moon 6:16 PM MST (1/27) 7:41 AM MST (1/27)
Length of Visible Light 10h 24m
Length of Day
9h 16m
Full, 100% of the Moon is Illuminated
Jan 27
Full
Feb 3
Last Quarter
Feb 10
New
Feb 17
First Quarter
Feb 25
Full

Hourly Weather History & Observations

Time (MST) Temp. Windchill Dew Point Humidity Pressure Visibility Wind Dir Wind Speed Gust Speed Precip Events Conditions
12:48 AM 30.2 °F 26.7 °F 28.4 °F 93% 29.76 in 10.0 mi SSW 3.5 mph - N/A   Mostly Cloudy
12:53 AM 30.9 °F 26.2 °F 28.9 °F 92% 29.82 in 10.0 mi SW 4.6 mph - N/A   Mostly Cloudy
1:53 AM 33.1 °F 24.4 °F 30.0 °F 89% 29.82 in 10.0 mi SW 11.5 mph - N/A   Partly Cloudy
2:53 AM 33.1 °F 25.5 °F 28.9 °F 85% 29.82 in 10.0 mi WSW 9.2 mph - N/A   Clear
3:53 AM 32.0 °F 25.6 °F 28.9 °F 88% 29.82 in 10.0 mi WSW 6.9 mph - N/A   Overcast
4:53 AM 33.1 °F 23.9 °F 28.9 °F 85% 29.81 in 10.0 mi SW 12.7 mph - N/A   Overcast
5:53 AM 28.9 °F 22.8 °F 26.1 °F 89% 29.82 in 10.0 mi WSW 5.8 mph - N/A   Mostly Cloudy
6:53 AM 26.1 °F 16.8 °F 21.0 °F 81% 29.83 in 10.0 mi SW 9.2 mph - N/A   Clear
7:53 AM 25.0 °F 18.1 °F 19.9 °F 81% 29.84 in 10.0 mi West 5.8 mph - N/A   Clear
8:53 AM 25.0 °F 20.7 °F 21.9 °F 88% 29.85 in 10.0 mi WSW 3.5 mph - N/A   Clear
9:53 AM 27.0 °F 20.5 °F 21.9 °F 81% 29.85 in 10.0 mi West 5.8 mph - N/A   Clear
10:53 AM 30.0 °F 22.4 °F 24.1 °F 79% 29.86 in 10.0 mi SW 8.1 mph - N/A   Clear
11:53 AM 30.9 °F 22.2 °F 25.0 °F 79% 29.85 in 10.0 mi SW 10.4 mph - N/A   Clear
12:53 PM 33.1 °F 23.4 °F 26.1 °F 75% 29.83 in 10.0 mi SW 13.8 mph - N/A   Clear
1:53 PM 34.0 °F 23.8 °F 26.1 °F 73% 29.81 in 10.0 mi SW 16.1 mph - N/A   Clear
2:53 PM 35.1 °F 26.4 °F 26.1 °F 70% 29.80 in 10.0 mi SW 12.7 mph - N/A   Clear
3:53 PM 34.0 °F 26.6 °F 26.1 °F 73% 29.81 in 10.0 mi SW 9.2 mph - N/A   Clear
4:53 PM 33.1 °F 26.9 °F 25.0 °F 72% 29.80 in 10.0 mi West 6.9 mph - N/A   Clear
5:53 PM 28.9 °F 23.9 °F 23.0 °F 78% 29.84 in 10.0 mi West 4.6 mph - N/A   Clear
6:53 PM 23.0 °F 14.7 °F 19.9 °F 88% 29.86 in 10.0 mi WSW 6.9 mph - N/A   Clear
7:53 PM 25.0 °F 20.7 °F 19.9 °F 81% 29.86 in 10.0 mi WSW 3.5 mph - N/A   Mostly Cloudy
8:53 PM 21.9 °F 14.5 °F 18.0 °F 85% 29.85 in 10.0 mi WSW 5.8 mph - N/A   Partly Cloudy
9:53 PM 19.9 °F 10.1 °F 16.0 °F 85% 29.85 in 10.0 mi West 8.1 mph - N/A   Partly Cloudy
10:53 PM 23.0 °F 10.6 °F 17.1 °F 78% 29.85 in 10.0 mi SW 13.8 mph - N/A   Clear
11:53 PM 24.1 °F 12.0 °F 17.1 °F 75% 29.86 in 10.0 mi SW 13.8 mph - N/A   Clear